www.pogodaiklimat.ru

Погода и климат >> Архив погоды >> Россия >> Якутия >> Намцы


ПОГОДА в Намцах

  • Прогноз погоды в Намцах
  • Монитор погоды в Намцах
  • Климат города

АРХИВ ПОГОДЫ в Намцах

Время (UTC), дата Ветер
(напр.,м/с)
 
Видим.   Явления Облачность Т
(С)
Тd
(С)
f
(%)
Тe
(С)
Тes
(С)
Комфортность P
(гПа)
Po
(гПа)
Тmin
(С)
Tmax
(С)
R
(мм)
R24
(мм)
S
(см)
15 14.10 СЗ 2 20 км снежные зёрна 10/10 360 м
[St]
-5.2 -6.9 88 -10 -10 1031.1 1019.4
18 14.10 З 1 20 км снежные зёрна 10/10 500 м
[St]
-5.1 -6.8 88 -7 -7 1031.3 1019.6
21 14.10 С 1 20 км снежные зёрна 10/10 540 м
[St]
-5.5 -7.3 87 -8 -8 1031.9 1020.2
00 15.10 С 1 50 км {снег} 10/10 400 м
[St]
-5.5 -7.3 87 -8 -8 1031.9 1020.2 -5.6 0.0 0
03 15.10 СЗ 1 20 км снежные зёрна 10/10 360 м
[St]
-5.0 -7.1 85 -7 -7 1032.0 1020.3
06 15.10 З 1 50 км {снег} 10/10 360 м
[St]
-5.4 -7.5 85 -8 -8 1032.2 1020.5
09 15.10 СЗ 1 50 км 10/10 450 м
[St]
-5.7 -8.3 82 -8 -8 1032.3 1020.6
12 15.10 СЗ 1 20 км слабый снег 10/10 300 м
[St]
-5.9 -8.9 79 -8 -8 1032.0 1020.3 -4.8 0.0
15 15.10 штиль 0 50 км {снег} 10/10 270 м
[St]
-5.9 -8.1 84 -7 -7 1031.8 1020.1
18 15.10 штиль 0 50 км {снег} 10/10 300 м
[St]
-5.6 -7.8 84 -6 -6 1030.9 1019.2
21 15.10 штиль 0 50 км 10/10 270 м
[St]
-5.7 -7.5 87 -7 -7 1030.2 1018.5
00 16.10 Ю 2 50 км 10/10 210 м
[St]
-5.7 -7.5 87 -10 -10 1029.2 1017.5 -6.0 0
03 16.10 Ю 1 50 км 10/10 270 м
[St]
-5.0 -6.7 88 -7 -7 1027.9 1016.2
06 16.10 Ю 2 50 км 10/10 360 м
[St]
-4.1 -6.7 82 -8 -8 1026.3 1014.7
09 16.10 Ю 2 50 км 10/10 330 м
[Frnb]
-4.2 -6.8 82 -8 -8 1025.7 1014.1
12 16.10 ЮВ 4 50 км 10/10 270 м
[St]
-5.5 -7.3 87 -12 -12 1025.0 1013.3 -4.0
15 16.10 ЮВ 3 50 км 10/10 180 м
[St]
-6.7 -7.9 91 -12 -12 1024.9 1013.2
18 16.10 В 1 50 км 10/10 180 м
[St]
-6.5 -7.7 91 -9 -9 1023.7 1012.0
21 16.10 ЮВ 3 50 км 10/10 210 м
[St]
-6.5 -7.3 94 -12 -12 1022.9 1011.2
00 17.10 ЮВ 2 50 км 10/10 180 м
[St]
-6.7 -7.5 94 -11 -11 1022.8 1011.1 -6.9 0
03 17.10 ЮВ 1 20 км снежные зёрна 10/10 180 м
[St]
-6.3 -7.1 94 -9 -9 1022.3 1010.7
06 17.10 В 1 50 км {снег} 10/10 210 м
[St]
-6.0 -6.8 94 -8 -8 1021.8 1010.2
09 17.10 штиль 0 50 км 10/10 240 м
[St]
-5.8 -6.5 95 -7 -7 1021.5 1009.9
12 17.10 штиль 0 10 км слабый снег 10/4 330 м
[St As op]
-5.8 -6.9 92 -7 -7 1020.9 1009.3 -5.4 0.4
15 17.10 штиль 0 50 км {снег} 10/10 900 м
[Sc]
-7.7 -8.7 93 -8 -8 1020.5 1008.8
18 17.10 штиль 0 50 км {снег} 10/10 1230 м
[Sc]
-8.6 -9.7 92 -9 -9 1020.3 1008.5
21 17.10 З 1 50 км 10/3 1500 м
[Sc As op]
-6.6 -7.4 94 -9 -9 1020.0 1008.3
00 18.10 штиль 0 50 км 1/1 1000 м
[Sc]
-7.1 -8.4 90 -8 -8 1020.1 1008.4 -10.5 0.0 1
03 18.10 С 2 50 км 8/8 330 м
[St]
-4.5 -6.5 86 -9 -8 1019.7 1008.1
06 18.10 З 2 50 км 4/4 300 м
[St]
-2.0 -5.1 79 -6 -5 1018.8 1007.4
09 18.10 З 1 50 км ясно -4.0 -6.2 85 -6 -6 1019.3 1007.8
12 18.10 З 1 50 км ясно -7.1 -8.0 93 -10 -10 1019.5 1007.8 -1.1
15 18.10 штиль 0 50 км ясно -9.4 -10.1 95 -10 -10 1019.3 1007.5
18 18.10 штиль 0 50 км ясно -9.4 -10.1 95 -10 -10 1018.9 1007.1
21 18.10 штиль 0 50 км 10/0
[Ac As]
-7.6 -8.9 90 -8 -8 1018.3 1006.6
00 19.10 Ю 1 50 км 10/10 1200 м
[Sc]
-5.6 -7.8 84 -8 -8 1017.2 1005.6 -10.3 1
03 19.10 Ю 2 50 км 10/8 1000 м
[Sc]
-2.7 -6.8 73 -6 -6 1016.8 1004.7
06 19.10 Ю 2 50 км 10/10 300 м
[St]
-1.8 -5.3 77 -6 -6 1014.7 1003.4
09 19.10 Ю 1 20 км слабый снег 10/0
[Ac As]
-2.8 -5.8 80 -5 -5 1014.8 1003.4
12 19.10 ЮВ 1 20 км слабый снег 10/0
[Ac As]
-3.4 -4.8 90 -6 -6 1015.1 1003.6 -1.5 0.8
15 19.10 штиль 0 20 км слабый снег 8/0
[Ac As]
-4.2 -5.8 89 -5 -5 1015.8 1004.3
18 19.10 штиль 0 20 км слабый снег 10/0
[Ac As]
-4.8 -6.1 91 -6 -6 1016.9 1005.4
21 19.10 штиль 0 20 км слабый снег 8/0 300 м
[As op]
-5.7 -7.1 90 -7 -7 1017.9 1006.3
00 20.10 штиль 0 20 км слабый снег 10/10 210 м
[St]
-5.6 -6.0 97 -7 -7 1019.4 1007.8 -10.6 0.4 1
03 20.10 С 1 50 км {снег} 10/10 360 м
[St]
-5.0 -6.3 91 -7 -7 1020.3 1008.7
06 20.10 штиль 0 20 км слабый снег 10/10 400 м
[St]
-3.5 -5.6 85 -5 -5 1020.7 1009.2
09 20.10 штиль 0 20 км слабый снег 10/10 660 м
[Frnb]
-3.8 -6.0 85 -5 -5 1021.2 1009.7
12 20.10 штиль 0 20 км {снег} 10/8 1410 м
[Sc Ac As]
-4.2 -6.5 84 -5 -5 1021.4 1009.9 -5.6 0.0
15 20.10 С 1 20 км слабый снег 10/10 1140 м
[St]
-4.7 -6.7 86 -7 -7 1022.7 1011.1
18 20.10 штиль 0 20 км слабый снег 10/10 1140 м
[Sc]
-5.3 -7.1 87 -6 -6 1023.2 1011.6
21 20.10 штиль 0 20 км {снег} 6/6 1500 м
[Sc Ac cuf]
-4.8 -6.1 91 -6 -6 1023.0 1011.4
00 21.10 Ю 1 50 км {снег} 10/10 1500 м
[Sc]
-4.6 -5.9 91 -7 -7 1022.5 1010.9 -5.3 0.0 1
03 21.10 Ю 1 50 км 9/9 1500 м
[Sc]
-1.5 -5.2 76 -3 -3 1022.2 1010.7
06 21.10 ЮВ 1 50 км 9/9 1300 м
[Sc Ac trans]
-1.4 -5.4 74 -3 -3 1021.9 1010.4
09 21.10 ЮВ 1 50 км 9/8 1410 м
[Sc Ac trans]
-3.0 -6.1 79 -5 -5 1022.2 1010.7

 

Местоположение метеостанции Намцы (Якутия, Россия): широта 62.72 долгота 129.60 высота над уровнем моря 90 м.

В архиве по умолчанию представлена погода в Намцах за последнюю неделю. Архивные данные за месяц целиком и за предыдущие месяцы, начиная с января 2011 года, Вы можете получить, выбрав интересующий диапазон дат из раскрывающегося списка и нажав кнопку "Ввод!".


*Определитесь, кто Вы:
робот инопланетянин человек

Внимание! Время в таблицах - всемирное. Для получения местного времени необходимо прибавить поправку, которая в Намцах равна 9 ч.

Смотрите также архив погоды в соседних городах и на ближайших метеорологических станциях:

Погода в Якутске (Якутия, Россия) (80 км)
Погода в Батамае (Якутия, Россия) (90 км)
Погода в Верхоянском Перевозе (Якутия, Россия) (138 км)
Погода в Покровске (Якутия, Россия) (140 км)
Погода в Бердигестяхе (Якутия, Россия) (143 км)
Погода в Сеген-Кюели (Якутия, Россия) (147 км)
Погода в Чурапче (Якутия, Россия) (173 км)
Погода в Сангаре (Якутия, Россия) (175 км)
Погода в Ытык-Кюёле (Якутия, Россия) (204 км)
Погода в Сого-Хае (Якутия, Россия) (235 км)

Пояснения к столбцам:

Ветер - указаны скорость ветра в м/с - средняя за 10 мин, порывы в срок и между сроками (в фигурных скобках) и направление, откуда дует ветер: С - северный, СВ - северо-восточный, В - восточный, ЮВ - юго-восточный, Ю - южный, ЮЗ - юго-западный, З - западный, СЗ - северо-западный.
Видимость - горизонтальная дальность видимости в метрах или километрах. При видимости от 1 до 10 км при отсутствии осадков обычно наблюдается дымка, при ухудшении видимости до 1 км и менее - туман. В сухую погоду видимость может ухудшаться дымом, пылью или мглою.
Явления - указаны атмосферные явления, наблюдавшиеся в срок или в последний час перед сроком; фигурными скобками обозначены явления, наблюдавшиеся между сроками (за 1-3 часа до срока); квадратными скобками обозначены град или гололедные отложения с указанием их диаметра в мм.
Облачность - указаны через наклонную черту общая и нижняя облачность в баллах и высота нижней границы облаков в метрах; квадратными скобками обозначены формы облаков: Ci - перистые, Cs - перисто-слоистые, Cc - перисто-кучевые, Ac - высококучевые, As - высокослоистые, Sc - слоисто-кучевые, Ns - слоисто-дождевые, Cu - кучевые, Cb - кучево-дождевые. Подробнее классификацию облаков см. в Атласе облаков (PDF).
T - Температура воздуха - температура, измеренная на высоте 2 м над землей.
Td - Температура точки росы - температура, при понижении до которой содержащийся в воздухе водяной пар достигнет насыщения.
f - Относительная влажность воздуха - влажноcть воздуха, измеренная на высоте 2 м над землей.
Te - Эффективная температура - температура, которую ощущает одетый по сезону человек в тени. Характеристика душности погоды. При расчете учитывается влияние влажности воздуха и скорости ветра на теплоощущения человека.
Tes - Эффективная температура на солнце - температура, которую ощущает человек, с поправкой на солнечный нагрев. Характеристика знойности погоды. Зависит от высоты солнца над горизонтом, облачности и скорости ветра. Ночью, в пасмурную погоду, а также при ветре 12 м/с и более поправка равна нулю.
P - Атмосферное давление - приведенное к уровню моря атмосферное давление.
Po - Атмосферное давление - измеренное на уровне метеостанции атмосферное давление.
Tmin - Минимальная температура - минимум температуры воздуха на высоте 2 м над землей.
Tmax - Максимальная температура - максимум температуры воздуха на высоте 2 м над землей.
R - Количество осадков - Количество выпавших осадков за период времени, мм. При наведении курсора мыши на число - период времени, за который выпало указанное количество осадков.
R24 - Количество осадков - Количество выпавших осадков за 24 часа, мм.
S - Снежный покров - Высота снежного покрова, см. При наведении курсора мыши на число - состояние снежного покрова и степень покрытия местности в баллах.